Regional Weather Roundup
Issued by NWS Newport/Morehead, NC

Current Version | Previous Version | Text Only | Print | Product List | Glossary On
Versions: 1 2 3 4 5 6 7 8 9 10 11 12 13 14 15 16 17 18 19 20 21 22 23 24 25 26 27 28 29 30 31 32 33 34 35 36 37 38 39 40 41 42 43 44 45 46 47 48 49 50
000
ASUS42 KMHX 232324
RWRMHX
WEATHER ROUNDUP FOR EASTERN NORTH CAROLINA
NATIONAL WEATHER SERVICE NEWPORT/MOREHEAD CITY NC
700 PM EDT SAT MAY 23 2015

NOTE: "FAIR" INDICATES FEW OR NO CLOUDS BELOW 12,000 FEET
WITH NO SIGNIFICANT WEATHER AND/OR OBSTRUCTIONS TO VISIBILITY

NCZ015>017-031-032-045>047-102-103-240000-
NORTH COAST

CITY           SKY/WX    TMP DP  RH WIND       PRES   REMARKS
EDENTON        SUNNY     67  53  59 E7        30.40S
ELIZABETH CITY SUNNY     65  47  52 E6        30.41S
KITTY HAWK     CLEAR     62  53  71 E5        30.40F
MANTEO         SUNNY     63  53  70 NE9       30.42S

$$

NCZ045>047-081-094-103-104-240000-
CENTRAL COAST

CITY           SKY/WX    TMP DP  RH WIND       PRES   REMARKS
FRISCO         SUNNY     65  53  65 NE7       30.41S
SWANQUARTER      N/A     70 N/A N/A E6G12     30.36S

$$

NCZ095-097-098-100-101-240000-
SOUTHERN COAST

CITY           SKY/WX    TMP DP  RH WIND       PRES   REMARKS
BEAUFORT       SUNNY     71  53  52 E8        30.39S
CEDAR ISLAND     N/A     70 N/A N/A NE10G18   30.44S
JACKSONVILLE   NOT AVBL
PINEY ISLAND   CLEAR    N/A N/A N/A E12       30.39S
WILMINGTON     SUNNY     75  55  49 SE9       30.37S


$$

NCZ011>013-027>030-043-044-078>080-089-090>093-098-240000-
COASTAL PLAIN

CITY           SKY/WX    TMP DP  RH WIND       PRES   REMARKS
AHOSKIE        SUNNY     71  52  51 SE5       30.38S
CLINTON        SUNNY     79  51  38 CALM      30.36S
ELIZABETHTOWN  SUNNY     77  45  32 SE5       30.35F
GOLDSBORO      MOSUNNY   79  49  34 E1        30.33F
GREENVILLE     SUNNY     77  50  38 SE8       30.37S
HAVELOCK       SUNNY     73  53  49 NE9       30.39S
KENANSVILLE    SUNNY     77  49  37 CALM      30.37S
KINSTON        MOSUNNY   79  52  38 E8        30.37S
NEW BERN       SUNNY     72  52  49 E9        30.40S
RICHLANDS      SUNNY     75  48  38 SE9       30.38S
ROCKY MOUNT    SUNNY     78  47  33 CALM      30.36F
WASHINGTON     SUNNY     74  50  42 E8        30.39R
WHITEVILLE     SUNNY     78  43  29 SE6       30.35F

$$

AMZ130-135-150-152-154-156-158-170-250-252-270-ANZ085-086-088-633-658-670-240000-
MARINE OBSERVATIONS

STATION/POSITION TIME  TEMP    WIND        PRES    WAVE   SWELL
                       AIR SEA DIR/SP/G            HT/PER HT/PER
                 (UTC) (F)     (DEG/KT/KT) (MB)    (FT/S) (FT/S)
CHESAPEAKE LIGHT 2300   60     120/ 10/ 11 1030.1
64 E VA BEACH    2250   62 61   40/  6/  8 1029.5    2/ 5   2/ 5
DUCK             2300   62 65   80/ 10/ 11 1028.9
2 E DUCK         2211      63                N/A     2/ 4
OREGON INLET     2300   62 71   30/  8/ 11 1029.7
13E OREGON INLT  2300      62                N/A     3/ 5
HATTERAS CG      2300   67 74   50/  8/ 12 1029.2
DIAMOND BUOY     2250   69 77   40/ 14/ 16 1029.3    4/ 8   2/ 8
CAPE LOOKOUT     2300   71      70/ 13/ 14 1028.8
BEAUFORT LAB     2300   72 76   80/  6/ 10 1028.3
27 SE WRIGHTSVLE 2300   71 77  100/ 10/ 12   N/A
5 SE WRIGHTSVLE  2208   74 76  120/ 10/ 14 1028.6
225 S CAPE HAT   2250   72 74   70/ 21/ 25 1026.6    6/ 6   2/ 9
41 SE CHARLESTON 2250   76 76   80/ 16/ 19 1026.6    4/ 6   2/10

$$



USA.gov is the U.S. government's official web portal to all federal, state and local government web resources and services.